Simultaneous Nadir Overpasses (SNOs) Predictions

Prediction of SNOs between AQUA and NOAA-19 Satellite Orbit:

Table of predicted SNOs for the next 14.0 days since TLE Epoch: 7/20/2012
Index Date (AQUA) Time (AQUA) AQUA Lat,Lon Date (NOAA-19) Time (NOAA-19) NOAA-19 Lat,Lon Distance(km) Time Diff (sec)
1 07/20/2012 14:20:21 -46.01, -2.69 07/20/2012 14:19:30 -45.96, -2.43 20.52 51
2 07/20/2012 15:08:35 50.13, 166.59 07/20/2012 15:09:19 50.13, 166.58 0.67 44
3 07/22/2012 19:04:37 -46.02, -73.76 07/22/2012 19:04:09 -45.98, -73.59 13.87 28
4 07/22/2012 19:52:06 52.79, 96.71 07/22/2012 19:53:12 52.79, 96.70 0.48 66
5 07/24/2012 23:48:52 -46.06,-144.81 07/24/2012 23:48:47 -46.04,-144.72 7.28 5
6 07/25/2012 00:28:26 78.85, 63.39 07/25/2012 00:29:39 78.45, 65.20 59.81 73
7 07/27/2012 03:43:38 46.04, -23.51 07/27/2012 03:42:25 45.99, -23.14 29.16 73
8 07/27/2012 04:32:50 -47.09, 144.51 07/27/2012 04:33:08 -47.06, 144.53 3.77 18
9 07/29/2012 08:27:53 46.05, -94.58 07/29/2012 08:27:04 45.99, -94.30 22.31 49
10 07/29/2012 09:16:36 -48.76, 74.10 07/29/2012 09:17:16 -48.76, 74.09 0.23 40
11 07/31/2012 13:12:07 46.04,-165.65 07/31/2012 13:11:41 46.03,-165.44 15.73 26
12 07/31/2012 14:00:06 -51.40, 4.15 07/31/2012 14:01:08 -51.40, 4.15 0.58 62
13 08/02/2012 17:56:22 46.01, 123.28 08/02/2012 17:56:20 46.00, 123.39 8.55 2




NCC Satellite Simultaneous Nadir Overpasses (SNOs) Prediction Service
